全球星 M029星 (GLOBALSTAR M029)

导读 | 星芒AI

GLOBALSTAR M029 是 Globalstar 卫星通信公司部署的一颗低轨移动通信卫星,属于其第二代卫星星座(Globalstar 2)的一部分。该卫星运行在约1414公里高度的近地轨道,主要用于提供手持终端和移动设备的语音和数据通信服务,覆盖全球大部分地区。M029 采用先进通信技术,支持点对点通信和数据传输,广泛应用于应急通信、海事、航空和偏远地区通信等领域。

基本信息
目录编号:
25963
目录名称:
GLOBALSTAR M029
国际标识:
1999-062C
轨道中心:
EARTH
卫星名称:
全球星 M029星
卫星全名:
全球星 M029星 (GLOBALSTAR M029)
卫星状态:
在轨 (已飞行9473 天)
发射日期:
1999-11-22 UTC
国别 :
(GLOB)
星等 :
--
轨道信息
数据来源 国际轨道数据 AOE轨道数据
星历时间 2025-10-29T17:03:57+0800
8小时前
查看轨道信息
2025-10-29T10:00:00+0800
15小时前
查看轨道信息
半长轴 8059.432km 8059.432km
偏心率 0.0002815 0.0002861
轨道倾角 51.979° 51.980°
近地点辐角 43.153° 44.404°
升交点赤经 92.059° 92.856°
平近点角 352.386° 158.830°
近地点 1679.028km 1678.991km
远地点 1683.566km 1683.603km
周期 120.010分钟 120.010分钟
每日圈数 11.99903 11.99903
详细信息
固有亮度:
5
最大亮度:
7.9
平衡模式:
三轴稳定
覆盖范围:
全球
运营商:
全球星公司
运营商所在国:
美国
使用方式:
暂无
卫星简介
全球星星座由48颗卫星加8颗备份星组成。这些卫星分布在8个倾角为52度的圆形轨道平面上,每个轨道平面6颗卫星,另有1 颗备用星。轨道高度约为1414km,传输时延和处理时延小于300ms,整个系统的覆盖区为南北纬70度以内的地区。该卫星已退役。
2D轨道图
3D轨道图
轨道高度分析图
轨道倾角分析图
轨道综合分析图
查看轨道综合分析图